Publicité

Trail des Cagous: classement OPTIC 2000 - 27 Km

Trail / Raid

22-08-2021

Organisateur: Nouvelle-Calédonie Aventure

Événement chronométré par inlive

Tout     M     F    
Tout     Senior     Master 1     Master 2     Master 3     Master 4    

Astuce: cliquez sur deux concurrents pour comparer leur temps

Position Dossard Nom Prénom Sexe Catégorie Classement Catégorie Temps
1 2785 SAMANICH Yohan M Senior 1 02:44:51
2 2808 DEHAN Loic M Master 1 1 02:46:44
3 2735 SAEZ Jean M Senior 2 03:00:34
4 2737 FANTINO Ludovic M Master 1 2 03:10:32
5 2820 ROLLAND Kevin M Senior 3 03:10:57
6 2768 BAQUE William M Senior 4 03:12:10
7 2714 THORAVAL Laura F Senior 1 03:13:42
8 2780 GUIRAUD Vincent M Master 1 3 03:14:40
9 2760 LE GALL Roland M Master 2 1 03:14:44
10 2809 DEFOSSE Maxime M Senior 5 03:15:34
11 2789 BOITTIAUX Olivier M Master 2 2 03:16:01
12 2755 LEJEUNE Remi M Master 1 4 03:19:33
13 2723 BOURASSIN Emmanuel M Senior 6 03:21:59
14 2734 DAILLERE Jeremy M Senior 7 03:22:24
15 2717 TESSON Romain M Senior 8 03:23:27
16 2706 NISHIKUMA Wesley M Master 1 5 03:24:42
17 2802 FRANCOIS Frederic M Master 1 6 03:28:01
18 2708 RUTECKI Alexandre M Master 1 7 03:29:39
19 2712 HEITZ Jeremy M Senior 9 03:29:41
20 2781 ENGELMANN Perrine F Senior 2 03:32:28
21 2822 CARPENTIER Guillaume M Senior 10 03:34:21
22 2761 FRABOULET Bruno M Master 1 8 03:34:29
23 2774 BARRAUD Alexandre M Senior 11 03:34:55
24 2771 SOLDATOV Mikhail M Master 1 9 03:35:21
25 2736 ALILI Brahim M Senior 12 03:38:37
26 2743 NACHEZ Jerome M Master 1 10 03:41:10
27 2765 PROT Myriam F Master 2 1 03:41:20
28 2818 LAURENS Camille M Senior 13 03:42:23
29 2805 AMRANE Riad M Master 1 11 03:42:26
30 2744 HARVET Xaviere anne F Master 1 1 03:42:40
31 2719 CASTEL Brice M Senior 14 03:43:25
32 2738 FANTINO Virginie F Master 1 2 03:43:39
33 2792 BOUTELET Romain M Master 1 12 03:45:30
34 2812 HOLTZ Cedric M Master 1 13 03:46:29
35 2705 ANGELINI Armelle F Master 1 3 03:46:34
36 2793 KAMINSKI Grzegorz M Master 1 14 03:47:19
37 2810 PIERRE DIT BOCQUET Philippe M Master 2 3 03:47:37
38 2823 BOUTAULT Jean-remy M Master 1 15 03:48:21
39 2766 LOQUET Wilfried M Senior 15 03:48:23
40 2739 PIOT Gregory M Master 1 16 03:48:30
41 2720 DENIS Hugo M Senior 16 03:48:40
42 2797 TORRES Guillaume M Master 1 17 03:48:51
43 2801 PIRIOU Gaela F Master 1 4 03:48:59
44 2799 GUEGUEN Romaric M Master 1 18 03:49:57
45 2754 GAFOUR Nahima F Senior 3 03:50:40
46 2740 JEULIN Frederic M Master 1 19 03:50:49
47 2751 STENFORT Herve M Master 1 20 03:51:22
48 2778 CHATAGNER Kevin M Senior 17 03:52:40
49 2779 KERAVEC Carole F Master 2 2 03:53:49
50 2702 DUPONT Damien M Master 1 21 03:57:15
51 2759 LE LEANNEC Pascal M Master 1 22 03:58:23
52 2753 GUEMAS Florent M Master 1 23 03:58:58
53 2750 DESNOYER Gael M Senior 18 03:59:40
54 2811 VAKOUME Joanes M Senior 19 04:00:19
55 2795 VERHAEGEN Jules M Senior 20 04:00:58
56 2767 MEUNIER Celia F Senior 4 04:01:02
57 2745 KLEIN Perrine F Senior 5 04:01:17
58 2796 DUROT Jeremie M Master 1 24 04:02:58
59 2749 PERRIER Herve M Master 1 25 04:03:30
60 2775 TARTAR Guillaume M Senior 21 04:03:54
61 2701 LUCAS Morgan M Master 1 26 04:04:02
62 2703 PAILLANDI Evrick M Master 1 27 04:04:49
63 2747 GUERIN NEE FABRE Julie F Senior 6 04:05:48
64 2707 LESAGE Jeremy M Senior 22 04:06:15
65 2732 JOSSE Arthur M Senior 23 04:07:00
66 2800 CONSTANT Jeanmarc M Master 1 28 04:07:57
67 2776 LEJEUNE Mike M Master 1 29 04:08:04
68 2721 MEYNAUD Chloe F Senior 7 04:09:35
69 2763 LEDUC Laurent M Master 2 4 04:09:52
70 2803 LEDUC Catherine F Master 2 3 04:09:53
71 2725 GUEROT Matthieu M Master 1 30 04:11:16
72 2773 GROSSEAU Vincent M Master 2 5 04:12:46
73 2798 VALLIER Emerentienne F Senior 8 04:15:30
74 2790 LACROIX Marine F Senior 9 04:15:32
75 2772 NOYER Dominique M Master 2 6 04:19:01
76 2731 BALLAND Marc M Master 2 7 04:25:50
77 2784 CORMERAIS Antoine M Senior 24 04:27:11
78 2742 LEMORDANT Vincent M Senior 25 04:29:27
79 2729 TERRAC Christophe M Master 2 8 04:30:20
80 2821 GUIHO Patrice M Master 2 9 04:38:46
81 2814 DUQUESNOY Helene F Master 2 4 04:43:54
82 2782 DARROUX Edouard M Senior 26 04:45:48
83 2748 LESPES Arnaud M Senior 27 04:49:34
84 2741 LIGNAT Patrick M Master 3 1 04:52:55
85 2746 LAFITTE Jean-baptiste M Senior 28 04:53:07
86 2757 SALINAS Yoann M Senior 29 04:53:10
87 2711 OLIVIER Clementine F Senior 10 04:56:36
88 2764 LE GOFF Yves M Master 1 31 04:56:50
89 2752 RENAULD Serge M Master 3 2 04:56:51
90 2756 KOLLER Elisa F Senior 11 04:59:53
91 2794 MAZZI Marcel M Master 4 1 05:07:56
92 2733 JOUANNET Laurent M Master 2 10 05:08:00
93 2817 DUFOUR Myriam F Master 3 1 05:09:38
94 2713 VENTURA Didier M Master 3 3 05:09:40
95 2807 KERBRAT Olivier M Master 2 11 05:13:06
96 2806 KERBRAT Erwan M Senior 30 05:13:08
97 2769 HEROULT Stephane M Master 1 32 05:15:55
98 2819 SUWARNO Witono M Master 2 12 05:15:57
99 2788 SUWARNO Wiyatno M Master 1 33 05:23:43
100 2786 LOZACH Yann M Master 2 13 05:38:18
101 2777 BOULET Stephane M Master 1 34 05:38:21
- 2718 FOULONNEAU Maud F Master 2 - DNF
- 2724 MARITAN Benoit M Master 1 - DNF
- 2726 DUPORTAL Anne-claire F Senior - DNF
- 2816 LEDUC Julien M Master 1 - DNF
- 2704 CHARLES Charles M Senior - DNS
- 2709 DUBRAY Alain M Master 2 - DNS
- 2710 DUBRAY Karine F Master 1 - DNS
- 2716 COURTIN Marion F Senior - DNS
- 2722 VINCIGUERRA Mathieu M Senior - DNS
- 2762 PAYET Olivier M Master 1 - DNS